Regional Weather Roundup
Issued by NWS

Home | Current Version | Previous Version | Graphics & Text | Print | Product List | Glossary On
Versions: 1 2 3 4 5 6 7 8 9 10 11 12 13 14 15 16 17 18 19 20 21 22 23 24 25 26 27 28 29 30 31 32 33 34 35 36 37 38 39 40 41 42 43 44 45 46 47 48 49 50
000
ASUS43 KLSX 271807
RWRMO

WEATHER SUMMARY FOR MISSOURI
NATIONAL WEATHER SERVICE SPRINGFIELD MO
100 PM CDT THU AUG 27 2015

NOTE: "FAIR" INDICATES FEW OR NO CLOUDS BELOW 12,000 FEET WITH NO
       SIGNIFICANT WEATHER AND/OR OBSTRUCTIONS TO VISIBILITY.
       CURRENT SKY AND/OR WEATHER CONDITIONS ARE NOT AVAILABLE FOR
       CHILLICOTHE AND FARMINGTON.

MOZ001>031-035>038-043-044-053-054-271900-
...NORTHERN AND WESTERN MISSOURI...

CITY           SKY/WX    TMP DP  RH WIND       PRES   REMARKS
KANSAS CTY INT TSTM      70  66  87 NE13      30.12R
6HR MIN TEMP:  64; 6HR MAX TEMP:  74; 6HR PCP: TRACE;

KANSAS C DTWN  CLOUDY    69  64  84 E7        30.10R THUNDER
6HR MIN TEMP:  66; 6HR MAX TEMP:  73; 6HR PCP:  0.01;

LEE`S SUMMIT   CLOUDY    67  63  87 S5        30.09S
6HR MIN TEMP:  63; 6HR MAX TEMP:  68; 6HR PCP:  1.26;

ST JOSEPH      CLOUDY    67  64  90 E20G29    30.10F
6HR MIN TEMP:  65; 6HR MAX TEMP:  72; 6HR PCP:  0.02;

CHILLICOTHE      N/A     72  62  71 CALM      30.20R
6HR MIN TEMP:  58; 6HR MAX TEMP:  76;

KIRKSVILLE     CLOUDY    74  58  57 SW7       30.19F
6HR MIN TEMP:  55; 6HR MAX TEMP:  74;


$$
MOZ066>068-077>081-088>096-101>105-271900-
...SOUTHWEST MISSOURI...

CITY           SKY/WX    TMP DP  RH WIND       PRES   REMARKS
SPRINGFIELD    CLOUDY    73  59  61 SE12      30.15S
6HR MIN TEMP:  62; 6HR MAX TEMP:  73;

JOPLIN         CLOUDY    72  64  76 S9        30.13F
6HR MIN TEMP:  66; 6HR MAX TEMP:  73;


$$
MOZ032>034-039>042-045>050-055>058-069>072-271900-
...CENTRAL MISSOURI...

CITY           SKY/WX    TMP DP  RH WIND       PRES   REMARKS
COLUMBIA       PTSUNNY   76  59  55 VRB3      30.16F
6HR MIN TEMP:  58; 6HR MAX TEMP:  76;

JEFFERSON CITY PTSUNNY   77  56  48 S6        30.15F
6HR MIN TEMP:  55; 6HR MAX TEMP:  77;

ROLLA          MOSUNNY   77  57  50 VRB5      30.16F
6HR MIN TEMP:  57; 6HR MAX TEMP:  77;

SEDALIA        CLOUDY    76  61  59 SE9       30.13F
6HR MIN TEMP:  57; 6HR MAX TEMP:  77;

WHITEMAN AFB   CLOUDY    71  59  64 SE10      30.10F
WARRENSBURG    CLOUDY    70  59  68 E10       30.09F
OSAGE BEACH    PTSUNNY   77  57  50 SE7       30.15F

$$
MOZ051-052-059>065-271900-
...EAST CENTRAL MISSOURI...

CITY           SKY/WX    TMP DP  RH WIND       PRES   REMARKS
ST LOUIS INTL  PTSUNNY   78  55  44 VRB3      30.19S
6HR MIN TEMP:  61; 6HR MAX TEMP:  78;

SPIRIT OF STL  MOSUNNY   75  59  57 CALM      30.17F
6HR MIN TEMP:  55; 6HR MAX TEMP:  76;

ST CHARLES     MOSUNNY   74  57  55 VRB6      30.18S
6HR MIN TEMP:  56; 6HR MAX TEMP:  75;


$$
MOZ072>076-082>087-097>100-106>115-271900-
...SOUTH CENTRAL AND SOUTHEAST MISSOURI...

CITY           SKY/WX    TMP DP  RH WIND       PRES   REMARKS
CAPE GIRARDEAU MOSUNNY   79  57  46 W6        30.16R
6HR MIN TEMP:  54; 6HR MAX TEMP:  79;

FARMINGTON     MOSUNNY   77  55  47 SW5       30.20F
6HR MIN TEMP:  54; 6HR MAX TEMP:  77;

POPLAR BLUFF   MOSUNNY   77  57  50 CALM      30.13F
6HR MIN TEMP:  56; 6HR MAX TEMP:  79;

WEST PLAINS    PTSUNNY   75  56  51 CALM      30.18F
6HR MIN TEMP:  54; 6HR MAX TEMP:  76;


$$



USA.gov is the U.S. government's official web portal to all federal, state and local government web resources and services.